カタログに戻る

NOAA 16 DEB

運用中PO
NORAD 41363·DEBRIS·🇺🇸 United States

打ち上げ Sep 21, 2000 から Vandenberg Space Force Base

Loading…

次のパス (今後24時間)

TLE

最新Source: Space-Track

元期: Sep 14, 2026, 10:44 UTC

1 41363U 00055JG  26257.44766137  .00026023  00000-0  23367-2 0  9993
2 41363  98.8949 122.9415 0011943  75.6423 284.6119 14.95641512554424

AllMySatでNOAA 16 DEBをリアルタイム追跡

Download on the App Store